Flag for Finland Weather past 2 weeks in Helsinki, Finland

Now
37 °F

Clear.


Feels Like: 37 °F
Forecast: 37 / 48 °F
Wind: 2 mph from North

Location: Helsinki Malmi Airport

Current Time: Apr 18, 2015 at 7:02:46 AM

Latest Report: Apr 18, 2015 at 6:20 AM


Visibility: 10 mi

Pressure: 29.98 "Hg

Humidity: 81%

Dew point: 32 °F

Location of HelsinkiLocation

Historic Weather in Helsinki — Graph

°F

Helsinki temperature yesterday

Maximum temperature yesterday: 45 °F (at 4:50 PM)
Minimum temperature yesterday: 34 °F (at 3:20 AM)
Average temperature yesterday: 39 °F

Past Weeks' High & Low Weather Summary

 TemperatureHumidityPressure
High57 °F (Apr 11, 5:20 PM)100% (Apr 3, 5:20 AM)30.30 "Hg (Apr 3, 5:20 AM)
Low25 °F (Apr 6, 6:20 AM)31% (Apr 9, 3:50 PM)29.21 "Hg (Apr 16, 3:50 AM)
Average40 °F73%29.78 "Hg
* Reported Apr 3 5:20 AM — Apr 18 5:20 AM, Helsinki, Weather by CustomWeather, © 2015

Note: Actual official high and low records may vary slightly from our data, if they occured in-between our weather recording intervals... More about our weather records

Advertising

Helsinki weather history for previous 24 hours

 ConditionsComfort  
Time TempWeatherWind HumidityBarometerVisibility
5:20 AM
Sat, Apr 18
37 °FClear.2 mph81%29.95 "Hg10 mi
4:50 AM37 °FClear.3 mph81%29.95 "Hg10 mi
4:20 AM36 °FClear.3 mph87%29.95 "Hg10 mi
3:50 AM37 °FClear.5 mph81%29.95 "Hg10 mi
3:20 AM36 °FClear.2 mph87%29.95 "Hg10 mi
2:50 AM37 °FClear.3 mph75%29.95 "Hg10 mi
2:20 AM36 °FClear.2 mph81%29.98 "Hg10 mi
1:50 AM36 °FClear.2 mph81%29.95 "Hg10 mi
1:20 AM36 °FClear.3 mph81%29.95 "Hg10 mi
12:50 AM37 °FClear.5 mph81%29.95 "Hg10 mi
12:20 AM39 °FClear.7 mph75%29.95 "Hg10 mi
11:50 PM
Fri, Apr 17
41 °FPassing clouds.7 mph70%29.95 "HgN/A
11:20 PM41 °FPassing clouds.7 mph70%29.92 "HgN/A
10:50 PM41 °FPassing clouds.7 mph70%29.92 "HgN/A
10:20 PM41 °FPassing clouds.7 mph70%29.92 "HgN/A
9:50 PM41 °FPassing clouds.8 mph76%29.92 "HgN/A
9:20 PM39 °FSunny.8 mph75%29.89 "Hg10 mi
8:50 PM43 °FPassing clouds.7 mph61%29.89 "HgN/A
8:20 PM45 °FPartly sunny.6 mph57%29.89 "HgN/A
7:50 PM45 °FPartly sunny.7 mph61%29.86 "HgN/A
7:20 PM45 °FSprinkles. Broken clouds.7 mph61%29.86 "HgN/A
6:50 PM45 °FBroken clouds.7 mph61%29.83 "HgN/A
6:20 PM45 °FBroken clouds.8 mph61%29.83 "HgN/A
5:50 PM43 °FPartly sunny.3 mph76%29.83 "HgN/A
5:20 PM41 °FScattered clouds.5 mph81%29.80 "HgN/A
4:50 PM45 °FRain showers. Broken clouds.5 mph71%29.80 "HgN/A
4:20 PM43 °FScattered showers. Partly sunny.7 mph81%29.77 "HgN/A
3:50 PM39 °FSprinkles. Broken clouds.6 mph87%29.77 "HgN/A
3:20 PM41 °FScattered showers. Broken clouds.7 mph87%29.74 "HgN/A
2:50 PM41 °FSprinkles. Broken clouds.9 mph76%29.74 "HgN/A
2:20 PM43 °FScattered clouds.7 mph81%29.71 "HgN/A
1:50 PM43 °FSprinkles. Broken clouds.10 mph71%29.71 "HgN/A
1:20 PM43 °FSprinkles. Broken clouds.8 mph71%29.68 "HgN/A
12:50 PM41 °FPartly sunny.8 mph76%29.68 "HgN/A
12:20 PM39 °FPartly sunny.10 mph81%29.68 "HgN/A
11:50 AM39 °FPartly sunny.9 mph81%29.65 "HgN/A
11:20 AM39 °FPartly sunny.8 mph81%29.65 "HgN/A
10:50 AM39 °FPartly sunny.8 mph81%29.62 "HgN/A
10:20 AM39 °FPartly sunny.7 mph81%29.59 "HgN/A
9:50 AM37 °FBroken clouds.9 mph81%29.59 "HgN/A
9:20 AM37 °FBroken clouds.9 mph87%29.56 "HgN/A
8:50 AM36 °FBroken clouds.8 mph93%29.56 "HgN/A
8:20 AM36 °FSprinkles. Low clouds.7 mph93%29.53 "Hg6 mi
7:50 AM36 °FLow clouds.6 mph93%29.50 "HgN/A
7:20 AM36 °FDrizzle. Mostly cloudy.6 mph93%29.50 "HgN/A
Weather by CustomWeather, © 2015

See weather overviewHow to use our weather pages